Regional Weather Roundup
Issued by NWS

Home | Current Version | Previous Version | Graphics & Text | Print | Product List | Glossary On
Versions: 1 2 3 4 5 6 7 8 9 10 11 12 13 14 15 16 17 18 19 20 21 22 23 24 25 26 27 28 29 30 31 32 33 34 35 36 37 38 39 40 41 42 43 44 45 46 47 48 49 50
000
ASUS43 KDMX 230906
RWRIA

WEATHER ROUNDUP FOR IOWA
NATIONAL WEATHER SERVICE DES MOINES IA
400 AM CDT THU MAR 23 2017

NOTE: "FAIR" INDICATES FEW OR NO CLOUDS BELOW 12,000 FEET WITH NO
SIGNIFICANT WEATHER AND/OR OBSTRUCTIONS TO VISIBILITY.

* - THESE STATIONS ARE NOT NWS STATIONS...THUS NOT UNDER NWS
QUALITY CONTROL.  THEY ALSO DO NOT REPORT WEATHER SUCH
AS PRECIPITATION OR FOG.

IAZ001>003-012>014-020>022-031>034-043>046-231000-
   NORTHWEST IOWA

CITY           SKY/WX    TMP DP  RH WIND       PRES   REMARKS
CARROLL *      CLOUDY    41  21  45 SE13      30.12F
CHEROKEE *     CLOUDY    40  23  49 S7        30.08F
DENISON *      CLOUDY    41  21  45 SE9G16    30.08F
LE MARS *      CLOUDY    41  25  52 S12       30.06F
ORANGE CITY *  CLOUDY    39  27  60 SE10      30.05F WCI  32
SHELDON *      CLOUDY    39  27  60 SE16      30.04F WCI  30
SIOUX CITY     CLOUDY    42  26  53 SE13G21   30.05F
SPENCER        CLOUDY    39  22  50 SE17      30.10F WCI  30
STORM LAKE *   CLOUDY    39  21  48 SE18G25   30.08F WCI  30
$$

IAZ055>058-069>071-079>083-090>094-231000-
   SOUTHWEST IOWA

CITY           SKY/WX    TMP DP  RH WIND       PRES   REMARKS
ATLANTIC *     CLOUDY    45  18  33 SE10      30.12F
AUDUBON *      CLOUDY    43  19  39 SE9       30.12F
CLARINDA *     CLOUDY    45  19  36 S12       30.14F
COUNCIL BLFS * CLOUDY    45  21  39 SE14      30.08F
CRESTON *      CLOUDY    43  18  36 SE15      30.14F
HARLAN  *      CLOUDY    43  19  39 SE13      30.12F
LAMONI         CLOUDY    44  17  33 SE9       30.15F
RED OAK *      CLOUDY    45  19  36 SE7G15    30.11F
SHENANDOAH *   CLOUDY    46  21  36 SE12G18   30.10F
$$

IAZ047>049-059>061-072>074-084-231000-
   CENTRAL IOWA

CITY           SKY/WX    TMP DP  RH WIND       PRES   REMARKS
AMES           CLOUDY    39  20  46 SE10      30.21S WCI  32
ANKENY *       CLOUDY    41  18  38 SE10G17   30.21F
BOONE *        CLOUDY    39  19  45 SE17      30.17F WCI  30
CHARITON *     CLOUDY    41  16  36 SE14      30.18S
DES MOINES     CLOUDY    42  15  33 SE10      30.20S
GRINNELL*      CLOUDY    37  21  52 SE14      30.25R WCI  28
MARSHALLTOWN   CLOUDY    37  21  52 SE15G23   30.23F WCI  28
NEWTON *       CLOUDY    37  19  48 SE15G22   30.22R WCI  28
PELLA *        CLOUDY    39  20  46 E8        30.23S WCI  34
PERRY *        CLOUDY    40  15  35 SE15      30.16F WCI  32
$$

IAZ004>006-015-016-023>025-035-036-231000-
   NORTH CENTRAL IOWA

CITY           SKY/WX    TMP DP  RH WIND       PRES   REMARKS
ALGONA *       CLOUDY    37  23  56 SE18G25   30.14F WCI  27
CLARION *      CLOUDY    37  23  56 SE22G30   30.16F WCI  27
ESTHERVILLE    CLOUDY    34  26  72 SE18      30.12F WCI  23
FORT DODGE *   CLOUDY    39  18  41 SE14G20   30.16F WCI  31
MASON CITY     CLOUDY    34  24  67 SE16G25   30.21F WCI  24
FOREST CITY *  CLOUDY    34  27  75 SE18      30.18F WCI  23
WEBSTER CITY * CLOUDY    37  19  48 SE18G24   30.15F WCI  27
IOWA FALLS *   CLOUDY    38  22  52 SE17G23   30.21F WCI  28
$$

IAZ007>011-017>019-026>030-037>042-050>054-066-231000-
   NORTHEAST IOWA

CITY           SKY/WX    TMP DP  RH WIND       PRES   REMARKS
CEDAR RAPIDS   CLOUDY    35  23  61 SE16      30.28F WCI  25
CHARLES CITY * CLOUDY    36  21  55 SE16G28   30.23F WCI  26
CLINTON *      MOCLDY    31  24  75 E13       30.36F WCI  21
DECORAH *      CLOUDY    34  21  60 SE13G18   30.27F WCI  25
DUBUQUE        CLOUDY    31  20  63 SE14      30.34S WCI  21
MONTICELLO *   CLOUDY    32  21  64 SE14      30.32F WCI  22
OELWEIN *      CLOUDY    34  23  64 SE15      30.28F WCI  24
WATERLOO       CLOUDY    36  20  52 SE16      30.25F WCI  26
$$

IAZ064-065-067-068-078-231000-
   EAST CENTRAL IOWA

CITY           SKY/WX    TMP DP  RH WIND       PRES   REMARKS
DAVENPORT      CLOUDY    32  22  66 SE14      30.34F WCI  22
IOWA CITY      CLOUDY    37  23  56 E9        30.32F WCI  30
MUSCATINE *    CLOUDY    37  21  52 SE12      30.33F WCI  30
QUAD CITIES    CLOUDY    33  22  63 E9        30.34F WCI  25
$$

IAZ062-063-075>077-085>089-095>099-231000-
   SOUTHEAST IOWA

CITY           SKY/WX    TMP DP  RH WIND       PRES   REMARKS
BURLINGTON     CLOUDY    37  22  54 SE13      30.30S WCI  29
FAIRFIELD *    CLOUDY    37  21  52 SE10G17   30.25F WCI  30
FORT MADISON * CLOUDY    37  21  52 SE13      30.29F WCI  29
KEOKUK *       CLOUDY    39  19  45 SE10G20   30.28S WCI  32
OSKALOOSA *    CLOUDY    38  22  52 SE14      30.24F WCI  29
CENTERVILLE *  CLOUDY    41  16  36 E14       30.21F
OTTUMWA        CLOUDY    40  18  41 SE13      30.23F WCI  32
WASHINGTON *   CLOUDY    37  23  56 SE16      30.29F WCI  28
$$

ABBREVIATIONS USED IN REMARKS
   TC - TEMPERATURES IN CELSIUS
  WCI - WIND CHILL INDEX
   HX - HEAT INDEX
  VSB - VISIBILITY
$$




USA.gov is the U.S. government's official web portal to all federal, state and local government web resources and services.